Showing default

COSMOS 82, 1572

Orbit data source: Space-Track

COSMOS 82, 1572 is a payload satellite owned by OKB-10 (CIS) in LEO that was launched on Fri, 03 Sep 1965 UTC via a KOSMOS 65S3 launch vehicle from the Tyuratam Missile And Space Complex (TTMTR). Payload-class satellites include a variety of spacecraft equipped with specific instruments for various scientific and technological missions. These include communications satellites like Starlink; space stations such as the ISS; scientific satellites like the Hubble; Earth observation satellites from companies like Planet Labs, Umbra, and HawkEye 360; GPS; miniature CubeSats for education and research; and military/defense satellites.

Loading next visibility...
Identifier
1572, 1965-070C
Orbit
LEO
Last TLE update
7 hours ago
Origin
Manufacturer
OKB-10
Mission
Defense Communications
Bus & Motor
STRELA-1 11F610, Unknown motor
Mass
50 kg wet, 50 kg dry
Launch date (UTC)
1965-09-03 (60 years ago)
Launch vehicle
KOSMOS 65S3
Launch site
Tyuratam Missile And Space Complex (TTMTR)
Object type
Payload
Rocket body
Debris
Shape & HBR
Poly, 0.8 m
Radar Cross Section
0.731 m², Medium (>0.1 m² and < 1m²)

Expand to show TLE details & history

TLE from 7 hours ago
0 COSMOS 82
1 01572U 65070C   25182.52902172 -.00000078  00000-0  10967-3 0  9991
2 01572  56.0585 115.3070 0075420 150.0798  22.1208 12.45117615720525
Epoch: 2025-07-01T12:41Z
TLE epoch observation values (Epoch: 2025-07-01T12:41:47.476Z)
Latitude
6.15134°
Longitude
-179.10305°
Altitude
1,430.575 km
Speed
7.172 km/s
True Right ascension
19h 24m 40s
True Declination
6° 07' 05"
Sunlit
Object was in full shadow at epoch
Visualization orbit readout
Latitude
55.6415°
Longitude
105.81138°
Altitude
1,457.331 km
Speed
7.156 km/s
Apparent Right ascension
17h 11m 44s
Apparent Declination
18° 14' 07"
Sunlit
Object is in daylight
Visualization observer readout
Local Sidereal Time
07:40:12
Azimuth
38.289° NE
Elevation
-22.34°
Doppler factor
1
Orbital elements
Apogee altitude
1,544.109 km
Perigee altitude
1,425.505 km
Semi-major axis
7,862.944 km
Eccentricity
0.00754
Inclination
56.0585°
RAAN
115.307°
Arg. of periapsis
150.0798°
True anomaly
Unknown
Mean anomaly
22.1208°
Eccentric anomaly
Unknown
Mean motion
3.1129 °/min
Orbital period
115.65 mins
BSTAR
0.00010967
Loading maneuver chart data...
Loading SW <> Apogee altitude chart data...
Loading historical data...
Loading historical data...
Loading historical data...
Loading historical data...
Loading historical data...
Loading historical data...
Loading historical data...
Other satellites on launch #70 in the year 1965 (1965-09-03 UTC)

COSMOS 82 Visibility forecast

Observer location: undefined°, undefined°

Span
Click to sort rows by Start time (UTC) header in descending order
Start Az.
Max El. time (UTC)
Max El. Az.
Max El.
End time (UTC)
End Az.
17 mins2025-07-01 21:31:10.821Z207.694° SW2025-07-01 21:40:10.821Z112.353° ESE42.292°2025-07-01 21:48:10.821Z49.917° ENE
15 mins2025-07-01 23:34:10.821Z264.176° W2025-07-01 23:41:10.821Z332.396° NNW35.347°2025-07-01 23:49:10.821Z40.909° NE
13 mins2025-07-02 01:38:10.821Z307.044° NW2025-07-02 01:44:10.821Z356.423° N24.982°2025-07-02 01:51:10.821Z52.177° ENE
14 mins2025-07-02 03:41:10.821Z324.052° NNW2025-07-02 03:47:10.821Z18.104° NNE32.102°2025-07-02 03:55:10.821Z90.84° ESE
15 mins2025-07-02 05:42:10.821Z312.117° NW2025-07-02 05:49:10.821Z237.113° WSW44.529°2025-07-02 05:57:10.821Z143.506° SSE
9 mins2025-07-02 07:45:10.821Z275.133° WNW2025-07-02 07:49:10.821Z243.442° WSW17.592°2025-07-02 07:54:10.821Z207.013° SW
|